Theta_e
331 331 331 335 335 337 335 334 336 336 337 334 331 331 329 329 327 326 326 326 326 326 327 328 332 332 329 329 326 319 316 312 314 310 310 311 313 313 312 313 311 310 310
328 330 331 332 332 333 333 333 335 334 335 333 333 332 329 327 325 322 323 323 323 325 325 328 330 330 328 328 322 320 314 313 314 311 310 307 309 311 312 312 311 311 309
326 327 330 329 330 331 332 331 334 332 334 335 333 330 327 323 319 319 319 320 322 323 325 328 329 330 329 324 322 319 316 311 314 317 316 310 308 309 311 311 310 311 309
327 327 328 328 331 330 334 333 333 333 334 335 330 327 323 320 317 317 318 317 319 321 325 329 330 330 327 324 321 319 318 317 313 316 317 319 317 311 306 309 309 309 308
329 328 327 329 331 333 332 333 334 333 334 333 330 327 325 320 318 318 318 318 319 320 322 328 330 329 327 325 323 322 320 318 317 316 316 317 317 316 310 306 306 307 307
328 328 329 329 330 334 333 334 332 331 332 330 330 329 326 319 316 317 316 316 316 318 320 323 328 330 329 327 324 323 322 321 320 318 318 316 314 313 309 307 307 306 306
327 325 325 324 326 329 332 333 330 329 329 330 329 329 324 322 319 318 317 316 314 316 318 320 321 323 326 327 327 325 324 322 321 320 317 317 315 314 309 307 305 304 305
325 326 324 324 326 327 329 330 329 329 328 328 327 326 322 318 318 319 318 317 315 316 319 319 319 318 318 319 321 323 323 324 322 320 318 315 311 309 308 307 305 303 303
324 324 325 324 324 325 327 327 328 330 329 328 328 326 322 320 318 321 321 316 317 316 317 317 316 316 316 317 318 317 317 319 319 317 315 310 308 309 308 307 306 304 301
322 324 324 323 324 325 326 329 330 330 329 329 327 324 321 320 320 320 317 316 316 315 315 315 314 314 314 315 315 314 315 314 313 310 309 308 307 306 306 306 305 304 303
321 323 323 323 324 324 324 326 328 328 328 327 325 323 319 319 320 318 316 315 315 314 314 313 312 311 311 312 312 311 310 309 308 309 307 306 306 305 305 306 305 303 303
323 324 323 323 322 322 322 324 326 327 327 326 323 321 320 318 318 316 315 315 313 314 313 312 311 310 310 311 310 308 308 307 306 306 305 305 304 306 306 305 304 303 303
322 325 324 322 322 322 322 323 324 326 327 325 322 321 319 318 317 317 315 314 313 312 312 311 310 309 310 310 309 308 307 306 306 305 304 304 305 305 305 304 303 302 300
323 325 325 325 324 323 324 324 325 325 326 324 322 320 319 318 318 316 314 313 312 310 309 310 309 309 309 308 308 307 306 305 305 306 305 304 305 305 304 303 303 302 301
321 323 325 323 323 323 324 325 325 324 324 324 322 321 320 319 318 316 315 313 312 310 309 308 308 308 308 307 307 306 305 304 304 304 303 304 297 293 294 303 302 302 300
322 323 324 323 321 321 321 323 324 325 324 325 323 322 320 318 317 315 314 313 311 310 310 308 307 307 305 295 297 303 305 304 303 302 302 298 295 293 291 291 288 291 301
315 323 324 323 323 322 322 322 324 325 323 323 323 322 319 317 316 313 312 311 311 312 310 310 308 307 307 295 295 295 305 304 304 303 302 297 298 296 296 290 289 289 289
309 315 321 325 324 324 323 324 324 323 321 321 321 321 319 317 316 314 312 313 312 310 310 310 309 308 305 293 294 293 306 305 305 305 304 301 300 301 299 296 297 296 296
308 310 313 315 326 324 323 322 322 321 320 320 320 320 320 317 315 314 314 313 311 310 310 309 308 308 304 292 293 296 305 304 304 305 305 302 301 293 293 299 298 298 296
308 308 311 315 321 324 324 321 321 321 320 322 322 322 320 317 315 314 314 313 311 309 307 307 309 303 306 291 292 295 303 303 303 304 304 294 299 291 290 298 299 297 297
308 311 313 316 321 323 322 320 322 321 323 323 323 322 320 319 318 317 315 313 310 309 309 307 308 308 306 298 292 292 302 303 303 302 302 302 289 290 290 290 299 298 298
305 309 312 314 318 323 321 319 319 322 322 322 322 321 320 319 317 316 315 312 312 310 308 307 307 307 307 296 291 291 290 296 303 302 303 301 289 289 288 289 289 288 289
302 308 312 313 317 321 320 318 318 319 319 319 319 319 318 318 317 316 313 312 311 310 307 306 306 307 306 304 291 290 290 290 299 303 300 291 289 288 287 287 287 284 294
298 302 308 314 316 320 320 321 320 320 319 317 316 317 315 315 316 315 314 312 310 310 308 307 307 308 307 307 301 297 296 288 293 290 296 292 290 289 292 289 288 292 295
294 297 299 302 307 316 317 320 322 321 318 316 315 315 314 312 314 314 314 312 313 310 311 310 310 308 307 306 301 299 299 300 297 299 300 297 297 294 295 296 294 295 295
292 293 294 296 299 302 302 304 311 318 317 315 316 315 314 313 315 314 312 291 298 295 296 298 306 309 302 293 294 293 292 293 289 297 300 298 298 297 297 297 296 296 293
Wind_Speed
22 18 15 14 13 15 18 13 13 13 12 11 10 9 8 7 6 5 7 6 7 6 5 7 8 7 8 9 10 9 10 9 8 7 7 6 5 4 5 4 5 5 7
22 23 22 16 16 18 15 12 15 14 12 10 9 9 8 7 6 6 7 6 7 7 7 8 9 8 9 10 11 10 8 8 9 7 8 6 7 5 4 3 4 4 5
23 21 21 21 19 19 19 13 17 15 15 14 9 8 7 7 6 7 7 6 6 7 5 8 8 8 9 9 9 9 10 8 7 7 5 4 5 7 6 3 4 2 4
23 20 20 22 23 18 19 16 17 19 16 15 12 13 10 9 7 7 7 7 6 7 8 6 8 8 8 10 9 9 8 7 7 5 2 4 5 1 7 6 5 4 5
26 25 22 19 23 21 18 15 18 16 16 15 13 11 10 8 9 8 10 8 7 6 8 8 9 8 7 10 9 9 8 6 5 5 4 2 2 2 3 8 7 4 3
26 23 21 16 17 20 19 18 19 17 15 15 14 14 12 12 10 10 8 7 7 7 8 8 6 7 6 9 8 8 8 6 5 4 2 2 2 2 0 1 4 4 6
21 21 20 18 15 20 19 17 18 18 16 16 13 12 11 11 12 12 8 9 7 7 8 8 7 6 6 7 7 8 8 7 5 3 3 1 2 2 2 1 5 3 6
21 23 21 19 19 18 19 18 19 19 20 18 16 14 14 9 10 11 8 7 7 8 10 9 8 8 8 7 6 6 5 5 5 4 1 2 3 3 2 1 3 4 4
19 22 20 18 18 17 21 19 19 19 21 19 16 15 14 12 11 11 10 8 8 8 10 10 9 9 8 8 8 6 6 6 5 5 5 5 4 4 4 3 2 4 2
21 21 18 18 18 18 17 17 18 18 20 18 16 14 14 13 12 11 11 11 9 11 11 11 10 10 9 9 8 8 9 8 6 6 7 6 4 5 4 3 3 3 4
22 19 18 18 18 18 15 16 15 16 20 18 16 15 14 13 12 11 11 11 11 12 12 12 11 10 11 10 9 9 10 10 8 8 8 7 5 4 4 4 4 4 4
24 23 20 21 18 17 17 17 15 16 18 18 17 16 14 14 13 12 13 12 12 12 12 12 12 11 11 10 10 10 10 10 10 9 8 8 6 6 5 4 6 5 4
25 23 20 19 20 19 18 18 18 18 18 19 18 16 15 14 14 14 14 14 13 13 13 13 12 12 11 11 10 10 10 10 9 9 9 8 8 5 5 5 5 4 4
25 22 22 21 20 20 20 20 20 17 17 18 18 17 16 16 14 14 15 14 14 13 13 13 12 12 12 12 11 11 10 10 9 8 8 8 7 7 5 5 5 4 4
22 20 21 17 17 17 18 19 18 18 17 17 19 17 17 16 15 15 13 13 14 13 13 13 12 12 11 10 12 12 11 10 10 8 8 7 11 14 11 1 4 4 3
25 22 20 20 17 16 16 17 17 18 18 18 17 18 17 17 14 14 14 14 14 14 12 13 13 13 10 13 10 12 11 11 11 10 9 8 8 10 10 9 14 10 1
9 15 16 17 15 14 14 17 17 17 17 15 16 17 17 17 15 16 15 15 14 12 12 12 13 13 10 14 10 8 11 10 10 10 10 9 8 9 8 7 8 8 7
12 11 3 16 17 16 14 14 14 16 16 16 16 16 17 17 16 16 17 15 13 13 12 12 12 12 10 14 12 9 11 10 10 10 10 9 10 10 9 8 8 7 6
10 7 8 9 12 18 18 16 16 17 16 18 17 18 17 18 18 17 16 15 13 13 12 13 14 13 12 16 14 12 11 10 11 10 10 9 11 12 3 8 7 7 6
11 11 8 6 4 14 16 17 18 18 19 18 18 18 19 18 19 18 17 15 14 15 13 15 14 15 14 16 16 14 9 11 9 10 10 4 6 16 9 7 7 7 7
11 8 4 6 7 8 12 12 14 16 16 16 17 16 18 18 16 15 14 15 15 14 14 15 14 15 14 16 19 18 11 10 10 9 9 9 14 14 12 8 5 4 8
15 14 7 4 3 9 10 7 6 7 10 13 14 15 16 14 13 16 14 15 14 14 14 14 12 11 13 17 18 19 17 7 10 9 8 9 18 13 12 8 7 6 3
16 16 10 2 4 3 9 6 4 4 5 3 8 12 13 13 14 15 15 13 15 12 13 12 11 10 11 12 20 17 17 12 6 8 8 15 17 15 9 6 9 5 6
16 17 18 11 8 6 6 7 10 11 10 10 8 7 8 9 11 11 11 11 12 12 12 12 11 10 10 10 11 13 12 8 7 5 8 9 10 9 7 9 7 7 8
16 17 17 18 17 8 5 3 7 10 10 12 9 10 9 10 11 11 10 10 11 12 11 11 11 11 11 12 14 14 13 13 11 9 9 8 8 9 9 9 9 8 8
17 17 18 18 19 17 17 18 15 3 5 8 8 8 8 9 10 11 8 11 1 12 5 8 10 10 12 15 19 19 15 16 14 10 10 9 9 10 10 10 9 9 9
Wind_Direction
179 164 177 157 142 151 163 179 155 159 168 165 168 164 162 151 140 125 150 145 138 155 173 154 161 174 150 150 131 135 141 134 113 131 125 118 128 100 117 113 100 103 88
172 170 176 147 155 159 166 171 162 164 178 169 173 173 153 150 138 135 139 130 150 156 175 158 168 167 139 132 144 147 144 142 164 155 140 145 148 131 97 107 107 35 73
168 170 158 161 167 171 174 168 168 169 181 181 162 143 135 124 147 144 146 137 149 153 145 169 167 159 135 147 150 154 162 165 185 193 309 193 95 144 148 165 98 138 76
166 169 162 171 179 176 176 171 181 180 181 172 160 164 166 161 154 162 127 139 148 148 146 160 150 144 147 150 168 175 177 180 180 189 224 2 13 284 149 150 142 149 139
160 170 171 176 186 173 173 175 180 182 173 168 173 174 167 148 150 138 142 139 137 145 143 160 154 163 161 154 179 170 199 192 188 194 173 181 148 98 319 146 143 154 117
168 175 173 171 189 177 175 180 169 180 167 178 176 186 167 153 154 149 154 156 153 151 148 145 153 164 169 156 180 177 194 221 235 203 166 268 336 25 118 163 146 113 126
156 166 172 172 171 181 169 176 170 176 165 188 173 175 155 162 159 158 167 156 156 157 152 149 149 157 169 170 179 181 193 214 209 219 206 12 39 343 344 305 99 150 132
157 172 176 178 172 179 168 170 174 177 175 178 175 164 168 170 161 177 157 168 166 160 152 148 152 142 152 160 168 179 203 192 202 171 176 114 85 72 38 355 141 147 156
175 175 173 180 171 169 170 170 177 178 177 176 172 168 169 169 161 163 157 154 152 139 153 144 145 146 149 155 156 140 145 154 155 129 144 117 97 83 67 52 7 329 216
171 182 170 173 170 172 172 169 183 177 175 175 170 170 169 170 159 156 165 160 154 156 153 147 145 146 144 151 146 142 140 137 142 135 129 118 110 104 95 87 65 26 339
174 181 170 173 171 167 169 177 182 176 174 174 170 167 171 166 161 164 156 161 160 156 158 149 150 153 149 150 147 142 141 139 135 131 127 116 127 115 106 97 73 57 352
170 184 167 170 169 167 165 178 180 180 177 173 171 171 166 167 168 166 163 159 166 165 160 154 158 158 155 153 149 155 141 143 144 134 135 129 120 113 111 95 79 71 30
172 176 163 170 170 171 172 173 175 180 175 176 173 169 172 171 174 169 167 166 166 166 163 161 163 162 158 154 158 144 149 147 144 147 144 137 136 135 119 113 114 110 91
174 166 170 176 173 173 177 176 177 176 175 178 176 175 176 177 176 171 169 172 168 168 166 167 165 164 165 159 158 155 151 148 149 146 142 142 139 135 135 121 121 122 128
173 163 171 167 172 181 178 179 179 174 174 183 179 177 179 176 173 173 172 172 172 172 170 168 167 170 170 167 164 158 157 157 148 147 145 104 76 62 55 126 150 149 159
167 172 173 165 173 180 180 182 178 175 175 182 184 176 179 177 173 173 175 172 175 174 173 174 173 175 185 134 153 161 164 164 161 159 140 125 116 85 67 63 62 51 341
335 166 150 164 178 171 177 176 183 174 174 181 186 180 178 178 172 176 179 176 176 171 177 178 179 181 173 140 149 175 168 170 170 165 154 165 129 148 137 99 98 75 58
9 7 156 164 177 169 179 176 176 169 173 180 183 178 179 181 175 177 181 177 176 175 178 181 183 183 166 154 158 188 173 177 176 173 172 177 155 163 161 164 159 145 146
358 341 24 336 151 169 174 176 178 175 179 184 188 182 178 182 179 181 179 177 176 175 181 184 186 187 158 160 168 183 180 183 182 182 183 181 174 138 181 182 176 171 138
355 349 326 293 242 159 165 176 185 184 186 189 190 183 182 184 187 183 181 176 180 179 186 187 191 190 166 170 173 194 186 186 185 185 182 106 192 152 178 210 188 192 169
360 336 274 238 171 149 160 185 187 189 193 193 191 183 185 192 182 178 178 176 180 181 189 190 188 193 185 176 178 201 199 188 192 188 190 183 143 160 177 228 214 216 174
4 359 346 298 302 160 156 180 188 176 179 189 192 184 187 188 178 177 176 181 182 182 186 188 187 195 193 164 189 200 222 206 195 196 193 174 153 169 172 190 130 121 161
2 356 354 50 123 132 144 164 142 135 107 203 187 179 186 187 183 180 175 181 186 185 186 191 191 186 187 169 176 195 214 222 245 195 188 141 157 156 168 174 149 169 202
8 7 358 49 66 23 108 139 160 172 174 180 182 184 191 188 192 185 181 186 184 188 188 191 188 185 186 183 175 193 205 208 217 123 118 140 157 174 181 168 184 208 209
10 18 11 23 13 38 52 41 139 173 177 174 183 180 192 190 198 200 194 191 193 193 190 190 188 186 190 193 166 179 187 193 201 182 150 165 178 186 196 196 197 202 218
18 25 19 22 18 18 24 9 353 189 201 175 187 188 195 187 202 200 187 55 318 180 162 199 193 189 187 157 160 174 184 179 172 193 194 194 197 198 198 201 196 201 207